"2010-03-18 00:00:00",1771479,5.192,86,0.922,0.143,14.51,105.8339,14.21,15.24,11.4,0,110.5,13.31,15.01,48.0
"2010-03-18 00:00:30",1771480,4.97,86,1.472,0.168,14.46,105.8347,14.21,15.23,11.46,0,110.5,13.31,15.01,48.0
"2010-03-18 00:01:00",1771481,4.892,86.1,1.843,0.154,14.53,105.8322,14.2,15.21,11.48,0,110.5,13.31,15.00,48.1
"2010-03-18 00:01:30",1771482,4.98,84.6,2.574,0.112,14.52,105.8314,14.2,15.23,11.59,0,110.5,13.31,15.00,46.6
"2010-03-18 00:02:00",1771483,4.949,85.5,1.406,0.149,14.49,105.8302,14.2,15.22,11.61,0,110.5,13.31,15.00,47.5
"2010-03-18 00:02:30",1771484,4.519,83.4,2.126,0.245,14.52,105.826,14.19,15.23,11.69,0,110.5,13.31,14.99,45.4
"2010-03-18 00:03:00",1771485,4.807,82.3,1.262,0.154,14.6,105.8269,14.19,15.23,11.7,0,110.5,13.31,14.99,44.3
"2010-03-18 00:03:30",1771486,4.403,84.2,2.439,0.173,14.56,105.8241,14.18,15.23,11.75,0,110.5,13.31,14.98,46.2
"2010-03-18 00:04:00",1771487,4.655,82.5,1.534,0.194,14.59,105.8221,14.18,15.23,11.74,0,110.5,13.31,14.98,44.5
"2010-03-18 00:04:30",1771488,4.899,83.7,1.939,0.086,14.59,105.8201,14.17,15.23,11.76,0,110.5,13.31,14.97,45.7
"2010-03-18 00:05:00",1771489,4.821,85.3,1.173,0.119,14.56,105.8181,14.17,15.23,11.76,0,110.5,13.31,14.97,47.3
"2010-03-18 00:05:30",1771490,4.468,83.3,1.708,0.172,14.64,105.8161,14.16,15.24,11.75,0,110.5,13.31,14.96,45.3
"2010-03-18 00:06:00",1771491,4.302,85,1.329,0.1,14.55,105.8162,14.16,15.23,11.75,0,110.5,13.31,14.96,47.0
"2010-03-18 00:06:30",1771492,4.361,87.9,1.909,0.133,14.59,105.8168,14.16,15.24,11.78,0,110.5,13.31,14.97,49.9
"2010-03-18 00:07:00",1771493,4.507,84.9,1.478,0.181,14.6,105.8165,14.16,15.24,11.79,0,110.5,13.31,14.96,46.9
"2010-03-18 00:07:30",1771494,4.074,87.4,2.744,0.133,14.63,105.8159,14.16,15.24,11.79,0,110.5,13.31,14.96,49.4
"2010-03-18 00:08:00",1771495,4.218,88,2.59,0.12,14.61,105.8162,14.16,15.24,11.78,0,110.5,13.31,14.96,50.0
"2010-03-18 00:08:30",1771496,4.108,92,1.892,0.093,14.63,105.8192,14.17,15.25,11.76,0,110.5,13.3,14.97,54.0
"2010-03-18 00:09:00",1771497,4.031,95.7,2.118,0.054,14.7,105.8222,14.18,15.23,11.76,0,110.5,13.3,14.98,57.7
"2010-03-18 00:09:30",1771498,3.959,100.2,0.9,0.122,14.59,105.8281,14.19,15.22,11.77,0,110.5,13.3,14.99,62.2
"2010-03-18 00:10:00",1771499,4.183,100.1,1.319,0.093,14.62,105.8314,14.2,15.23,11.81,0,110.5,13.3,15.00,62.1
"2010-03-18 00:10:30",1771500,4.204,95.3,3.853,0.077,14.66,105.8335,14.21,15.22,11.81,0,110.5,13.3,15.01,57.3
"2010-03-18 00:11:00",1771501,4.138,91.8,0.72,0.111,14.63,105.8359,14.21,15.22,11.71,0,110.5,13.3,15.01,53.8
"2010-03-18 00:11:30",1771502,3.793,97.5,2.813,0.153,14.69,105.8368,14.21,15.22,11.7,0,110.5,13.3,15.02,59.5
"2010-03-18 00:12:00",1771503,4.042,95.3,1.535,0.133,14.72,105.838,14.22,15.21,11.73,0,110.5,13.3,15.02,57.3
"2010-03-18 00:12:30",1771504,4.04,95.9,1.803,0.189,14.73,105.8398,14.22,15.22,11.73,0,110.5,13.3,15.02,57.9
"2010-03-18 00:13:00",1771505,4.076,97,2.666,0.13,14.68,105.8384,14.22,15.21,11.72,0,110.5,13.31,15.02,59.0
"2010-03-18 00:13:30",1771506,4.091,100.6,0.84,0.125,14.62,105.8382,14.22,15.2,11.74,0,110.5,13.31,15.02,62.6
"2010-03-18 00:14:00",1771507,3.958,98.8,1.939,0.088,14.72,105.8235,14.18,15.2,11.81,0,110.5,13.32,14.98,60.8
"2010-03-18 00:14:30",1771508,4.394,98.7,1.719,0.18,14.67,105.8126,14.15,15.21,11.88,0,110.5,13.32,14.95,60.7
"2010-03-18 00:15:00",1771509,4.628,101.5,1.837,0.105,14.69,105.8107,14.15,15.19,11.89,0,110.5,13.32,14.95,63.5
"2010-03-18 00:15:30",1771510,4.325,104.9,2.39,0.094,14.62,105.811,14.15,15.19,11.93,0,110.5,13.32,14.95,66.9
"2010-03-18 00:16:00",1771511,5.297,109.1,7.498,1.316,16.56,105.8125,14.15,15.27,12.06,0,110.5,13.28,14.95,71.1
"2010-03-18 00:16:30",1771512,5.077,108.5,4.124,1.24,16.75,105.814,14.16,15.3,12.13,0,110.5,13.28,14.96,70.5
"2010-03-18 00:17:00",1771513,4.487,99.8,3.113,0.87,14.82,105.8149,14.16,15.18,12,0,110.5,13.28,14.96,61.8
"2010-03-18 00:17:30",1771514,3.979,97.5,0.96,0.067,14.37,105.8158,14.16,15.17,11.99,0,110.5,13.32,14.96,59.5
"2010-03-18 00:18:00",1771515,4.307,102.3,1.136,0.081,14.19,105.8167,14.16,15.16,11.98,0,110.5,13.32,14.96,64.3
"2010-03-18 00:18:30",1771516,4.495,106.4,2.289,0.147,14.11,105.8167,14.16,15.16,11.96,0,110.5,13.32,14.96,68.4
"2010-03-18 00:19:00",1771517,4.509,103,1.358,0.096,14.25,105.815,14.16,15.14,11.99,0,110.5,13.32,14.96,65.0
"2010-03-18 00:19:30",1771518,4.683,106.1,1.785,0.113,14.17,105.8048,14.13,15.15,11.97,0,110.5,13.32,14.93,68.1
"2010-03-18 00:20:00",1771519,4.729,105.1,1.575,0.103,14.25,105.7967,14.11,15.13,11.95,0,110.5,13.32,14.91,67.1
"2010-03-18 00:20:30",1771520,4.57,107.6,1.795,0.08,14.36,105.7908,14.1,15.14,11.95,0,110.5,13.32,14.90,69.6
"2010-03-18 00:21:00",1771521,4.477,108.1,1.287,0.149,14.39,105.7908,14.1,15.14,11.88,0,110.5,13.32,14.90,70.1
"2010-03-18 00:21:30",1771522,4.507,108.2,1.699,0.08,14.5,105.7849,14.08,15.13,11.84,0,110.5,13.32,14.88,70.2
"2010-03-18 00:22:00",1771523,4.441,108.1,1.369,0.057,14.5,105.7832,14.08,15.13,11.86,0,110.5,13.32,14.88,70.1
"2010-03-18 00:22:30",1771524,4.593,110.1,1.256,0.094,14.68,105.7829,14.08,15.11,11.86,0,110.5,13.32,14.88,72.1
"2010-03-18 00:23:00",1771525,4.449,110.2,0.715,0.05,14.71,105.7829,14.08,15.11,11.87,0,110.5,13.32,14.88,72.2
"2010-03-18 00:23:30",1771526,4.441,109.4,0.941,0.055,14.68,105.7829,14.08,15.1,11.9,0,110.5,13.32,14.88,71.4
"2010-03-18 00:24:00",1771527,4.766,109.5,4.369,0.937,15.12,105.7829,14.08,15.09,11.92,0,110.5,13.28,14.88,71.5
"2010-03-18 00:24:30",1771528,5.103,111.8,7.222,1.219,16.45,105.7829,14.08,15.22,12.12,0,110.5,13.28,14.88,73.8
"2010-03-18 00:25:00",1771529,4.525,108.6,3.027,0.709,14.45,105.7829,14.08,15.1,12.03,0,110.5,13.28,14.88,70.6
"2010-03-18 00:25:30",1771530,4.773,107.4,5.25,1.105,14.63,105.7829,14.08,15.1,12.06,0,110.5,13.28,14.88,69.4
"2010-03-18 00:26:00",1771531,5.428,109.9,7.133,1.319,16.78,105.7829,14.08,15.31,12.3,0,110.5,13.28,14.88,71.9
"2010-03-18 00:26:30",1771532,4.901,106.6,5.327,1.207,15.09,105.7823,14.08,15.17,12.22,0,110.5,13.28,14.88,68.6
"2010-03-18 00:27:00",1771533,4.592,104,5.955,0.947,14.58,105.7798,14.07,15.24,12.29,0,110.5,13.28,14.87,66.0
"2010-03-18 00:27:30",1771534,5.429,111.3,8.39,1.29,15.18,105.7688,14.04,15.25,12.3,0,110.5,13.27,14.84,73.3
"2010-03-18 00:28:00",1771535,4.153,104.2,1.706,0.123,12.56,105.7584,14.01,15.07,12.12,0,110.5,13.31,14.82,66.2
"2010-03-18 00:28:30",1771536,4.272,105.6,1.205,0.099,12.48,105.753,14,15.05,12.11,0,110.5,13.31,14.80,67.6
"2010-03-18 00:29:00",1771537,4.223,104.3,1.201,0.038,12.56,105.7496,13.99,15.06,12.14,0,110.5,13.31,14.79,66.3
"2010-03-18 00:29:30",1771538,4.302,104.3,0.921,0.069,12.95,105.7491,13.99,15.06,12.17,0,110.5,13.31,14.79,66.3
"2010-03-18 00:30:00",1771539,4.305,104.1,0.762,0.059,13.36,105.7491,13.99,15.04,12.19,0,110.5,13.32,14.79,66.1
"2010-03-18 00:30:30",1771540,4.265,104.9,1.601,0.087,13.7,105.7491,13.99,15.04,12.17,0,110.5,13.32,14.79,66.9
"2010-03-18 00:31:00",1771541,4.184,107.9,1.385,0.071,13.95,105.7491,13.99,15.03,12.14,0,110.5,13.32,14.79,69.9
"2010-03-18 00:31:30",1771542,4.134,108,0.816,0.062,14.1,105.7491,13.99,15.04,12.09,0,110.5,13.32,14.79,70.0
"2010-03-18 00:32:00",1771543,4.034,106.7,0.993,0.073,14.34,105.7488,13.99,15.02,12.12,0,110.5,13.33,14.79,68.7
"2010-03-18 00:32:30",1771544,4.633,109,5.262,0.998,15.12,105.7448,13.98,15.02,12.14,0,110.5,13.29,14.78,71.0
"2010-03-18 00:33:00",1771545,4.649,111.1,6.229,1.19,15.74,105.7353,13.95,15.14,12.27,0,110.5,13.29,14.76,73.1
"2010-03-18 00:33:30",1771546,4.896,112.3,6.078,1.275,15.84,105.7209,13.92,15.05,12.19,0,110.5,13.29,14.72,74.3
"2010-03-18 00:34:00",1771547,4.81,111.6,5.967,1.453,15.51,105.7152,13.9,15.07,12.24,0,110.5,13.29,14.70,73.6
"2010-03-18 00:34:30",1771548,5.838,120,7.118,1.22,17.44,105.7156,13.9,15.21,12.37,0,110.5,13.29,14.71,82.0
"2010-03-18 00:35:00",1771549,4.015,108.9,5.508,0.881,14.57,105.7156,13.9,15.15,12.38,0,110.4,13.29,14.71,70.9
"2010-03-18 00:35:30",1771550,5.264,112.6,7.851,1.359,16.08,105.7161,13.91,14.99,12.21,0,110.4,13.29,14.71,74.6
"2010-03-18 00:36:00",1771551,3.82,103.7,3.032,0.711,13.09,105.7164,13.91,15.09,12.33,0,110.5,13.29,14.71,65.7
"2010-03-18 00:36:30",1771552,4.722,110.2,4.924,1.401,14.68,105.7156,13.9,15.01,12.26,0,110.4,13.29,14.71,72.2
"2010-03-18 00:37:00",1771553,3.459,103.8,1.311,0.079,12.58,105.7179,13.91,14.95,12.23,0,110.4,13.32,14.71,65.8
"2010-03-18 00:37:30",1771554,3.507,102.8,2.035,0.12,12.66,105.7117,13.89,14.95,12.25,0,110.5,13.32,14.70,64.8
"2010-03-18 00:38:00",1771555,3.637,105.8,1.751,0.079,12.78,105.7038,13.87,14.94,12.26,0,110.4,13.33,14.67,67.8
"2010-03-18 00:38:30",1771556,3.696,104.5,1.517,0.073,13.22,105.6997,13.86,14.93,12.24,0,110.4,13.33,14.66,66.5
"2010-03-18 00:39:00",1771557,3.635,105.7,0.638,0.075,13.55,105.6979,13.86,14.93,12.24,0,110.4,13.33,14.66,67.7
"2010-03-18 00:39:30",1771558,3.708,107.2,0.856,0.05,13.89,105.699,13.86,14.91,12.24,0,110.4,13.33,14.66,69.2
"2010-03-18 00:40:00",1771559,3.688,109.7,1.198,0.033,13.98,105.6957,13.85,14.92,12.24,0,110.4,13.33,14.65,71.7
"2010-03-18 00:40:30",1771560,4.173,112.1,4.985,1.009,15.36,105.7011,13.87,14.98,12.3,0,110.4,13.29,14.67,74.1
"2010-03-18 00:41:00",1771561,4.194,113.6,5.437,1.161,15.19,105.7032,13.87,15,12.31,0,110.4,13.29,14.67,75.6
"2010-03-18 00:41:30",1771562,4.472,115.7,7.275,1.258,15.96,105.7065,13.88,14.95,12.24,0,110.5,13.29,14.68,77.7
"2010-03-18 00:42:00",1771563,4.929,117.6,6.738,1.36,16.69,105.7059,13.88,15.02,12.33,0,110.4,13.29,14.68,79.6
"2010-03-18 00:42:30",1771564,4.71,118.1,7.726,1.326,16.26,105.7057,13.88,15.09,12.38,0,110.4,13.29,14.68,80.1
"2010-03-18 00:43:00",1771565,4.6,116.8,7.794,1.332,15.87,105.6956,13.85,15.04,12.33,0,110.4,13.29,14.65,78.8
"2010-03-18 00:43:30",1771566,3.678,112.8,1.475,0.092,13.06,105.6855,13.83,14.86,12.16,0,110.4,13.32,14.63,74.8
"2010-03-18 00:44:00",1771567,4.663,119.4,7.439,1.337,15.07,105.6788,13.81,15.04,12.34,0,110.4,13.28,14.61,81.4
"2010-03-18 00:44:30",1771568,3.443,112.9,0.934,0.09,12.81,105.6792,13.81,14.84,12.11,0,110.4,13.32,14.61,74.9
"2010-03-18 00:45:00",1771569,3.308,111.3,1.011,0.062,12.76,105.6801,13.81,14.84,12.13,0,110.4,13.32,14.61,73.3
"2010-03-18 00:45:30",1771570,3.477,110.6,0.926,0.059,12.97,105.6804,13.81,14.84,12.14,0,110.4,13.32,14.61,72.6
"2010-03-18 00:46:00",1771571,3.532,111.7,0.506,0.046,13.26,105.6819,13.82,14.83,12.16,0,110.4,13.32,14.62,73.7
"2010-03-18 00:46:30",1771572,3.423,111.9,1.196,0.048,13.57,105.6833,13.82,14.83,12.15,0,110.4,13.33,14.62,73.9
"2010-03-18 00:47:00",1771573,3.492,110.7,2.442,0.064,13.79,105.6833,13.82,14.82,12.14,0,110.4,13.33,14.62,72.7
"2010-03-18 00:47:30",1771574,3.429,111.1,1.055,0.078,13.99,105.6774,13.81,14.8,12.12,0,110.4,13.33,14.61,73.1
"2010-03-18 00:48:00",1771575,3.684,115.6,3.708,0.69,14.84,105.6735,13.8,14.85,12.16,0,110.4,13.3,14.60,77.6
"2010-03-18 00:48:30",1771576,4.42,118,5.564,1.237,15.64,105.6667,13.78,14.87,12.13,0,110.4,13.3,14.58,80.0
"2010-03-18 00:49:00",1771577,4.473,115.7,7.255,1.279,16.27,105.6518,13.74,14.85,12.08,0,110.4,13.3,14.54,77.7
"2010-03-18 00:49:30",1771578,4.828,119.4,7.309,1.38,16.11,105.6495,13.74,14.88,12.17,0,110.4,13.3,14.54,81.4
"2010-03-18 00:50:00",1771579,5.319,123.4,6.323,1.335,17.35,105.6495,13.74,14.99,12.25,0,110.4,13.3,14.54,85.4
"2010-03-18 00:50:30",1771580,3.521,115.6,0.703,0.059,13.79,105.6495,13.74,14.88,12.11,0,110.4,13.33,14.54,77.6
"2010-03-18 00:51:00",1771581,3.987,118,5.113,1.016,13.73,105.6495,13.74,14.76,11.91,0,110.4,13.29,14.54,80.0
"2010-03-18 00:51:30",1771582,3.734,118.6,4.486,0.71,13.85,105.6495,13.74,14.91,12.01,0,110.4,13.3,14.54,80.6
"2010-03-18 00:52:00",1771583,4.619,122.6,6.841,1.34,14.68,105.6495,13.74,14.75,11.81,0,110.4,13.3,14.54,84.6
"2010-03-18 00:52:30",1771584,3.611,117,0.805,0.061,12.9,105.6478,13.73,14.74,11.76,0,110.4,13.33,14.53,79.0
"2010-03-18 00:53:00",1771585,3.44,118.1,0.528,0.078,12.99,105.6428,13.72,14.73,11.71,0,110.4,13.33,14.52,80.1
"2010-03-18 00:53:30",1771586,3.33,121.2,1.668,0.035,13.14,105.6332,13.69,14.71,11.73,0,110.4,13.34,14.49,83.2
"2010-03-18 00:54:00",1771587,3.401,123.3,1.249,0.07,13.46,105.6225,13.67,14.7,11.72,0,110.4,13.34,14.47,85.3
"2010-03-18 00:54:30",1771588,3.495,122.2,1.527,0.078,13.79,105.6168,13.65,14.71,11.73,0,110.4,13.34,14.45,84.2
"2010-03-18 00:55:00",1771589,3.405,119.8,1.439,0.131,14.08,105.6157,13.65,14.69,11.74,0,110.4,13.34,14.45,81.8
"2010-03-18 00:55:30",1771590,4.112,123.4,6.385,1.195,15.48,105.6157,13.65,14.7,11.77,0,110.4,13.31,14.45,85.4
"2010-03-18 00:56:00",1771591,4.608,122.3,6.916,1.36,16.5,105.6157,13.65,14.82,11.9,0,110.4,13.31,14.45,84.3
"2010-03-18 00:56:30",1771592,3.926,118.1,5.127,0.921,14.89,105.6157,13.65,14.72,11.82,0,110.4,13.31,14.45,80.1
"2010-03-18 00:57:00",1771593,5.548,128.6,6.459,1.254,17.56,105.6157,13.65,14.95,12.01,0,110.4,13.31,14.45,90.6
"2010-03-18 00:57:30",1771594,4.961,125.9,7.037,1.37,16.16,105.6157,13.65,14.8,11.83,0,110.4,13.31,14.45,87.9
"2010-03-18 00:58:00",1771595,3.452,118.8,0.495,0.052,13.26,105.6157,13.65,14.67,11.69,0,110.4,13.34,14.45,80.8
"2010-03-18 00:58:30",1771596,3.917,122.6,6.283,1.009,14.16,105.6157,13.65,14.83,11.91,0,110.4,13.3,14.45,84.6
"2010-03-18 00:59:00",1771597,4.252,125.5,6.348,1.169,13.99,105.612,13.64,14.7,11.83,0,110.4,13.3,14.44,87.5
"2010-03-18 00:59:30",1771598,3.375,119.2,1.919,0.122,13.02,105.6053,13.62,14.72,11.88,0,110.4,13.33,14.42,81.2
"2010-03-18 01:00:00",1771599,3.492,118.6,1.274,0.066,12.96,105.6036,13.62,14.64,11.89,0,110.4,13.33,14.42,80.6
"2010-03-18 01:00:30",1771600,3.509,119.9,1.818,0.112,13.19,105.5996,13.61,14.64,11.87,0,110.4,13.33,14.41,81.9
"2010-03-18 01:01:00",1771601,3.41,121.8,1.084,0.062,13.43,105.5861,13.57,14.65,11.84,0,110.4,13.33,14.37,83.8
"2010-03-18 01:01:30",1771602,3.337,122.1,0.736,0.058,13.68,105.5833,13.57,14.63,11.73,0,110.4,13.34,14.37,84.1
"2010-03-18 01:02:00",1771603,3.599,122.5,4.422,0.806,14.78,105.5828,13.56,14.72,11.86,0,110.4,13.3,14.36,84.5
"2010-03-18 01:02:30",1771604,4.202,122,6.856,1.248,15.53,105.5828,13.56,14.66,11.86,0,110.4,13.3,14.36,84.0
"2010-03-18 01:03:00",1771605,3.991,122.3,5.788,1.109,15.88,105.5842,13.57,14.71,11.9,0,110.4,13.31,14.37,84.3
"2010-03-18 01:03:30",1771606,3.729,120.8,3.53,0.849,14.44,105.5869,13.57,14.65,11.83,0,110.4,13.31,14.37,82.8
"2010-03-18 01:04:00",1771607,5.398,130.5,6.328,1.211,17.82,105.5878,13.58,14.85,11.97,0,110.4,13.31,14.38,92.5
"2010-03-18 01:04:30",1771608,4.214,123.6,6.73,1.335,15.5,105.5878,13.58,14.74,11.88,0,110.4,13.31,14.38,85.6
"2010-03-18 01:05:00",1771609,3.249,118.4,1.229,0.121,13.23,105.5905,13.58,14.59,11.68,0,110.4,13.35,14.38,80.4
"2010-03-18 01:05:30",1771610,3.302,117.9,0.776,0.039,13.11,105.5918,13.59,14.6,11.71,0,110.4,13.35,14.39,79.9
"2010-03-18 01:06:00",1771611,4.572,127,7.158,1.374,15.62,105.5838,13.57,14.73,11.89,0,110.4,13.31,14.37,89.0
"2010-03-18 01:06:30",1771612,3.123,119.9,1.25,0.048,13.09,105.5802,13.56,14.61,11.75,0,110.4,13.35,14.36,81.9
"2010-03-18 01:07:00",1771613,3.187,116.9,1.321,0.05,12.82,105.5692,13.53,14.58,11.75,0,110.4,13.35,14.33,78.9
"2010-03-18 01:07:30",1771614,3.19,117.7,0.978,0.05,12.87,105.5648,13.52,14.57,11.76,0,110.4,13.35,14.32,79.7
"2010-03-18 01:08:00",1771615,3.218,116.9,0.777,0.037,13.2,105.5641,13.52,14.57,11.77,0,110.4,13.35,14.32,78.9
"2010-03-18 01:08:30",1771616,3.232,115.7,0.952,0.054,13.62,105.5659,13.52,14.55,11.76,0,110.4,13.35,14.32,77.7
"2010-03-18 01:09:00",1771617,3.124,117.1,0.567,0.044,13.91,105.5707,13.53,14.61,11.83,0,110.4,13.35,14.33,79.1
"2010-03-18 01:09:30",1771618,4.315,122.7,6.851,1.325,16.17,105.5718,13.54,14.65,11.88,0,110.4,13.32,14.34,84.7
"2010-03-18 01:10:00",1771619,3.201,117.3,0.632,0.065,13.98,105.5736,13.54,14.57,11.85,0,110.4,13.35,14.34,79.3
"2010-03-18 01:10:30",1771620,3.486,119.4,5.468,0.962,15.06,105.5772,13.55,14.73,12,0,110.4,13.32,14.35,81.4
"2010-03-18 01:11:00",1771621,4.915,124.9,6.906,1.295,17.03,105.579,13.55,14.81,12.09,0,110.4,13.32,14.35,86.9
"2010-03-18 01:11:30",1771622,3.744,119.6,5.884,1.231,14.79,105.5796,13.56,14.57,11.93,0,110.4,13.32,14.36,81.6
"2010-03-18 01:12:00",1771623,2.986,117.2,0.692,0.037,13.05,105.5823,13.56,14.52,11.89,0,110.4,13.35,14.36,79.2
"2010-03-18 01:12:30",1771624,2.979,118.7,0.649,0.08,13.07,105.5812,13.56,14.52,11.88,0,110.4,13.35,14.36,80.7
"2010-03-18 01:13:00",1771625,3.198,118.3,2.909,0.742,13.26,105.5744,13.54,14.54,11.95,0,110.4,13.32,14.34,80.3
"2010-03-18 01:13:30",1771626,4.199,125,6.659,1.399,15.69,105.564,13.52,14.65,12.05,0,110.4,13.32,14.32,87.0
"2010-03-18 01:14:00",1771627,2.866,115,1.691,0.06,13.13,105.5544,13.49,14.51,11.87,0,110.4,13.35,14.29,77.0
"2010-03-18 01:14:30",1771628,2.913,112.8,0.967,0.066,13.05,105.5499,13.48,14.49,11.85,0,110.4,13.35,14.28,74.8
"2010-03-18 01:15:00",1771629,2.901,115.4,1.919,0.058,13.34,105.5499,13.48,14.48,11.82,0,110.4,13.35,14.28,77.4
"2010-03-18 01:15:30",1771630,2.931,117.8,1.036,0.052,13.62,105.5499,13.48,14.48,11.77,0,110.4,13.35,14.28,79.8
"2010-03-18 01:16:00",1771631,3.028,122.6,5.95,0.875,14.94,105.5499,13.48,14.58,11.82,0,110.4,13.31,14.28,84.6
"2010-03-18 01:16:30",1771632,3.253,125.5,4.676,1.113,14.86,105.5499,13.48,14.56,11.9,0,110.4,13.31,14.28,87.5
"2010-03-18 01:17:00",1771633,3.503,128.9,6.189,1.254,15.74,105.5499,13.48,14.55,11.81,0,110.4,13.31,14.28,90.9
"2010-03-18 01:17:30",1771634,2.755,125.2,0.483,0.046,13.72,105.5499,13.48,14.46,11.76,0,110.4,13.35,14.28,87.2
"2010-03-18 01:18:00",1771635,3.49,128.1,6.45,1.152,15.76,105.5488,13.48,14.72,12.05,0,110.4,13.31,14.28,90.1
"2010-03-18 01:18:30",1771636,4.571,132.8,6.761,1.34,17.32,105.5443,13.47,14.69,12,0,110.4,13.31,14.26,94.8
"2010-03-18 01:19:00",1771637,3.417,124.6,5.687,1.13,14.23,105.5406,13.46,14.45,11.76,0,110.4,13.31,14.26,86.6
"2010-03-18 01:19:30",1771638,2.937,124.8,0.761,0.065,13.12,105.5251,13.42,14.44,11.79,0,110.4,13.35,14.22,86.8
"2010-03-18 01:20:00",1771639,2.945,125.4,0.471,0.033,13.1,105.5169,13.4,14.44,11.87,0,110.3,13.35,14.19,87.4
"2010-03-18 01:20:30",1771640,4.288,131.9,7.174,1.356,15.79,105.5161,13.39,14.52,11.97,0,110.3,13.32,14.19,93.9
"2010-03-18 01:21:00",1771641,3.382,127.6,5.782,1.032,14.54,105.5161,13.39,14.6,12.08,0,110.3,13.32,14.19,89.6
"2010-03-18 01:21:30",1771642,2.879,125.3,0.339,0.025,13.03,105.5161,13.39,14.42,11.92,0,110.4,13.36,14.19,87.3
"2010-03-18 01:22:00",1771643,2.836,125,0.408,0.042,12.99,105.5161,13.39,14.41,11.92,0,110.4,13.36,14.19,87.0
"2010-03-18 01:22:30",1771644,2.742,123.8,0.704,0.022,13.14,105.5161,13.39,14.41,11.95,0,110.4,13.36,14.19,85.8
"2010-03-18 01:23:00",1771645,3.425,128.1,6.608,1.191,15.07,105.5161,13.39,14.56,12.18,0,110.4,13.32,14.19,90.1
"2010-03-18 01:23:30",1771646,3.157,126.8,4.633,0.937,14.41,105.5133,13.39,14.52,12.32,0,110.4,13.32,14.19,88.8
"2010-03-18 01:24:00",1771647,3.02,123.4,2.841,0.491,13.83,105.5062,13.37,14.39,12.28,0,110.4,13.33,14.17,85.4
"2010-03-18 01:24:30",1771648,3.855,128.7,7.649,1.268,15.57,105.491,13.33,14.47,12.41,0,110.4,13.33,14.13,90.7
"2010-03-18 01:25:00",1771649,4.177,130.6,6.953,1.332,15.46,105.4828,13.31,14.49,12.44,0,110.4,13.32,14.11,92.6
"2010-03-18 01:25:30",1771650,4.861,131.6,6.918,1.323,16.76,105.4822,13.31,14.59,12.57,0,110.4,13.32,14.11,93.6
"2010-03-18 01:26:00",1771651,3.83,127,4.113,0.981,13.7,105.4822,13.31,14.35,12.28,0,110.4,13.32,14.11,89.0
"2010-03-18 01:26:30",1771652,3.355,126.9,1.497,0.053,13.02,105.4822,13.31,14.35,12.1,0,110.4,13.36,14.11,88.9
"2010-03-18 01:27:00",1771653,3.392,129.8,1.081,0.035,13.19,105.4822,13.31,14.34,12,0,110.4,13.36,14.11,91.8
"2010-03-18 01:27:30",1771654,4.074,134.7,5.561,1.224,14.41,105.4822,13.31,14.35,11.98,0,110.3,13.32,14.11,96.7
"2010-03-18 01:28:00",1771655,4.63,137.7,6.696,1.357,15.94,105.4808,13.3,14.48,12.06,0,110.4,13.33,14.10,99.7
"2010-03-18 01:28:30",1771656,3.305,133.1,1.057,0.112,13.28,105.4729,13.28,14.31,11.94,0,110.3,13.36,14.08,95.1
"2010-03-18 01:29:00",1771657,3.586,134.3,4.142,0.812,14.03,105.4639,13.26,14.31,11.95,0,110.4,13.33,14.06,96.3
"2010-03-18 01:29:30",1771658,3.766,135.7,5.658,0.987,14.6,105.4529,13.23,14.43,12.09,0,110.4,13.33,14.03,97.7
"2010-03-18 01:30:00",1771659,3.884,137.4,5.474,1.294,14.73,105.4484,13.22,14.31,11.96,0,110.3,13.33,14.02,99.4
"2010-03-18 01:30:30",1771660,3.015,134.7,1.119,0.07,13.54,105.4484,13.22,14.29,11.96,0,110.4,13.36,14.02,96.7
"2010-03-18 01:31:00",1771661,3.097,135.6,1.34,0.047,13.66,105.4484,13.22,14.29,11.94,0,110.3,13.37,14.02,97.6
"2010-03-18 01:31:30",1771662,4.55,144.4,6.729,1.363,16.35,105.4493,13.22,14.56,12.18,0,110.3,13.33,14.02,106.4
"2010-03-18 01:32:00",1771663,5.109,146.3,6.613,1.288,17.24,105.4487,13.22,14.47,12.1,0,110.3,13.33,14.02,108.3
"2010-03-18 01:32:30",1771664,3.244,136.5,0.548,0.032,13.47,105.4496,13.22,14.27,11.85,0,110.3,13.36,14.02,98.5
"2010-03-18 01:33:00",1771665,3.272,137.7,0.706,0.021,12.98,105.4499,13.22,14.27,11.82,0,110.3,13.36,14.02,99.7
"2010-03-18 01:33:30",1771666,3.447,138.8,0.84,0.073,12.99,105.4517,13.23,14.26,11.83,0,110.3,13.36,14.03,100.8
"2010-03-18 01:34:00",1771667,3.566,138.2,2.598,0.554,13.12,105.4508,13.23,14.29,11.87,0,110.3,13.33,14.02,100.2
"2010-03-18 01:34:30",1771668,4.727,142.4,6.819,1.342,15.37,105.4461,13.21,14.37,11.88,0,110.3,13.33,14.01,104.4
"2010-03-18 01:35:00",1771669,3.468,137.4,1.154,0.032,12.98,105.4442,13.21,14.25,11.71,0,110.3,13.36,14.01,99.4
"2010-03-18 01:35:30",1771670,3.759,140.8,4.696,0.905,13.99,105.4403,13.2,14.4,11.86,0,110.3,13.33,14.00,102.8
"2010-03-18 01:36:00",1771671,3.879,141.8,4.808,1.1,13.91,105.4283,13.17,14.31,11.78,0,110.3,13.33,13.97,103.8
"2010-03-18 01:36:30",1771672,3.226,140.3,0.706,0.034,13.04,105.4273,13.17,14.21,11.74,0,110.3,13.36,13.96,102.3
"2010-03-18 01:37:00",1771673,3.163,141.6,1.029,0.04,13.11,105.4285,13.17,14.21,11.77,0,110.3,13.36,13.97,103.6
"2010-03-18 01:37:30",1771674,3.125,142.2,0.758,0.042,13.36,105.4282,13.17,14.21,11.78,0,110.3,13.37,13.97,104.2
"2010-03-18 01:38:00",1771675,4.627,148.8,6.663,1.36,16.06,105.4333,13.18,14.44,12.01,0,110.3,13.34,13.98,110.8
"2010-03-18 01:38:30",1771676,4.662,149.1,7.661,1.333,16.48,105.4306,13.17,14.39,11.93,0,110.3,13.34,13.97,111.1
"2010-03-18 01:39:00",1771677,3.214,141.2,0.964,0.048,13.1,105.4336,13.18,14.19,11.69,0,110.3,13.37,13.98,103.2
"2010-03-18 01:39:30",1771678,3.242,145.3,1.493,0.058,12.89,105.4375,13.19,14.17,11.67,0,110.3,13.37,13.99,107.3
"2010-03-18 01:40:00",1771679,3.232,146,0.79,0.039,12.95,105.4361,13.19,14.17,11.67,0,110.3,13.37,13.99,108.0
"2010-03-18 01:40:30",1771680,4.519,152.2,7.236,1.336,15.71,105.4329,13.18,14.27,11.75,0,110.3,13.34,13.98,114.2
"2010-03-18 01:41:00",1771681,3.964,146.9,5.84,1.015,14.6,105.4219,13.15,14.34,11.8,0,110.3,13.34,13.95,108.9
"2010-03-18 01:41:30",1771682,4.45,149.2,7.224,1.263,14.97,105.4124,13.13,14.26,11.69,0,110.3,13.34,13.93,111.2
"2010-03-18 01:42:00",1771683,4.27,146.3,4.91,1.028,13.9,105.4125,13.13,14.27,11.69,0,110.3,13.34,13.93,108.3
"2010-03-18 01:42:30",1771684,4.78,145.9,6.578,1.081,14.05,105.4119,13.13,14.15,11.49,0,110.3,13.34,13.92,107.9
"2010-03-18 01:43:00",1771685,4.303,137.8,2.39,0.166,12.74,105.4128,13.13,14.12,11.6,0,110.3,13.38,13.93,99.8
"2010-03-18 01:43:30",1771686,4.513,134.9,4.684,0.806,13.21,105.4152,13.14,14.12,11.85,0,110.3,13.34,13.93,96.9
"2010-03-18 01:44:00",1771687,5.636,140,5.599,1.29,15.88,105.4146,13.13,14.35,12.2,0,110.3,13.34,13.93,102.0
"2010-03-18 01:44:30",1771688,6.144,146.1,7.07,1.257,16.89,105.4158,13.14,14.33,12.14,0,110.3,13.34,13.93,108.1
"2010-03-18 01:45:00",1771689,3.988,142.1,2.325,0.197,13.05,105.4161,13.14,14.1,11.81,0,110.3,13.37,13.94,104.1
"2010-03-18 01:45:30",1771690,4.226,140.6,2.997,0.135,12.88,105.4141,13.13,14.1,11.7,0,110.3,13.37,13.93,102.6
"2010-03-18 01:46:00",1771691,4.271,142.4,1.188,0.068,13.21,105.4057,13.11,14.19,11.72,0,110.3,13.38,13.91,104.4
"2010-03-18 01:46:30",1771692,5.784,151.1,6.45,1.288,15.76,105.3896,13.07,14.19,11.69,0,110.3,13.34,13.87,113.1
"2010-03-18 01:47:00",1771693,5.638,148.3,6.777,0.974,14.07,105.3825,13.05,14.12,11.78,0,110.3,13.34,13.85,110.3
"2010-03-18 01:47:30",1771694,6.263,147.6,6.996,1.359,14.87,105.3825,13.05,14.17,12.28,0,110.3,13.34,13.85,109.6